sat.trackr.live / text

‹ back to catalog

STARLINK-35810

NORAD 66575 · 2025-268U

PAYLOAD ACTIVE UNKNOWN

§ Identity

Operator
Country
US
Launch date
2025-11-21
Launch site
AFETR
Launch vehicle
Mass (kg)
RCS (m²)

Purposes: comms

External: N2YO · Heavens-Above · Gunter

§ Orbital elements

Epoch: 2026-05-24T18:30:17.870688Z

Period
94.27 min
Inclination
43.0012°
Eccentricity
0.0001926
Mean motion
15.27592213 rev/d
Perigee alt
481.7 km
Apogee alt
484.3 km
Semi-major
6,861.1 km
B*
7.1914e-4
RAAN
277.5527°
Arg perigee
253.8677°
Mean anomaly
106.1963°
Rev number
2,959

§ Raw data

STARLINK-358101 66575U 25268U   26144.77104017  .00019587  00000+0  71914-3 0  99902 66575  43.0012 277.5527 0001926 253.8677 106.1963 15.27592213 29590

JSON: /api/v1/satellites/66575 · /tle

For live sub-satellite position, see the globe view (requires WebGL).

§ Visibility from observer

Set your observer location to see the next 7 days of passes ≥ 10°. The values pass through the URL so the page stays shareable.

No JS? Fill the form by hand. The geolocation button needs JavaScript.